Skip to content.

Mid-South Canterbury

  

Glenaan Station - GLE

Logged in to unit HSN10726 as: Guest
(Last data received Wed 21 Feb 2018 06:44:02 - 49 seconds ago)

All FWI Graphs Forecast Soil Hourly FWI Daily FWI Download FWI Data

Hourly FWI Logs | Period From 06:44 20/02/2018 to 06:44 21/02/2018

Change the DoC% for the 24hr period starting 12:00pm 20/2/2018 to

If the date above is the current day, then all future logs will inherit this value until such time as it is changed again. If you wish to change historic values you can do so by going back to the day you want to alter (navigate via the graphs) and change the DoC% there (however this will only affect that day).

WindRainHourly FWIsDaily FWIsForestGrassScrub
DateTime (NZST)Temp (C)RH (%)Dir (deg)Speed (km/h)Hourly (mm)Daily (mm)FFMCISIHFWIFFMCDMCDCISIBUIFWIDSRROS (m/h)FFI (kW/m)FFDCDoC (%)ROS (m/h)GFI (kW/m)GFDCROS (m/h)SFI (kW/m)SFDC
21/02/2018 0500 8.0 97.7 0 0.0 0.6 0.0 0.0 0.0 0 0 L 60 0 0 L 0 0 L
21/02/2018 0400 8.1 97.7 0 0.0 3.6 0.0 0.0 0.0 0 0 L 60 0 0 L 0 0 L
21/02/2018 0300 7.9 97.6 0 0.0 3.2 0.0 0.0 0.0 0 0 L 60 0 0 L 0 0 L
21/02/2018 0200 7.9 97.8 0 0.0 2.2 0.0 0.0 0.0 0 0 L 60 0 0 L 0 0 L
21/02/2018 0100 7.8 97.6 0 0.0 2.6 0.0 0.0 0.0 0 0 L 60 0 0 L 0 0 L
21/02/2018 0000 7.7 97.5 0 0.0 1.8 0.0 0.0 0.0 0 0 L 60 0 0 L 0 0 L
20/02/2018 2300 7.4 96.9 0 0.0 1.8 0.0 0.0 0.0 0 0 L 60 0 0 L 0 0 L
20/02/2018 2200 7.4 96.3 0 0.0 3.0 0.0 0.0 0.0 0 0 L 60 0 0 L 0 0 L
20/02/2018 2100 7.2 96.3 0 0.0 3.2 0.0 0.0 0.0 0 0 L 60 0 0 L 0 0 L
20/02/2018 2000 7.1 96.2 0 0.0 5.4 0.0 0.0 0.0 0 0 L 60 0 0 L 0 0 L
20/02/2018 1900 7.3 95.5 0 0.0 9.4 0.0 0.0 0.0 0 0 L 60 0 0 L 0 0 L
20/02/2018 1800 7.4 95.7 0 0.0 9.2 0.0 0.0 0.0 0 0 L 60 0 0 L 0 0 L
20/02/2018 1700 7.6 95.2 0 0.0 6.8 0.0 0.0 0.0 0 0 L 60 0 0 L 0 0 L
20/02/2018 1600 7.6 93.7 0 0.0 7.4 0.0 0.0 0.0 0 0 L 60 0 0 L 0 0 L
20/02/2018 1500 8.3 93.6 0 0.0 9.8 0.0 0.0 0.0 0 0 L 60 0 0 L 0 0 L
20/02/2018 1400 9.6 94.7 0 0.0 6.2 0.0 0.0 0.0 0 0 L 60 0 0 L 0 0 L
20/02/2018 1300 9.8 95.0 0 0.0 4.4 0.0 0.0 0.0 0 0 L 60 0 0 L 0 0 L
20/02/2018 1200 10.2 94.9 0 0.0 3.8 17.0 0.0 0.0 0.0 0.0 6.1 78.6 0.0 10.2 0.0 0.0 0 0 L 60 0 0 L 0 0 L
20/02/2018 1100 10.3 95.3 0 0.0 2.6 0.0 0.0 0.0 0 0 L 60 0 0 L 0 0 L
20/02/2018 1000 10.6 94.4 0 0.0 3.8 0.0 0.0 0.0 0 0 L 60 0 0 L 0 0 L
20/02/2018 0900 10.6 94.0 0 0.0 3.0 0.0 0.0 0.0 0 0 L 60 0 0 L 0 0 L
20/02/2018 0800 10.9 95.1 0 0.0 1.8 0.0 0.0 0.0 0 0 L 60 0 0 L 0 0 L
20/02/2018 0700 10.9 96.0 0 0.0 1.8 0.0 0.0 0.0 0 0 L 60 0 0 L 0 0 L
20/02/2018 0600 11.0 95.0 0 0.0 0.0 0.0 0.0 0.0 0 0 L 60 0 0 L 0 0 L